DELTA 1 DEB, 8084

Orbit data source: Space-Track

DELTA 1 DEB, 8084 is space debris in SSO originally from a launch on Sun, 23 Jul 1972 UTC launched from the Air Force Western Test Range (AFWTR). Debris objects in space refer to the collection of defunct objects orbiting the Earth. Examples of debris include non-operational satellites, rocket bodies, and fragments generated from explosions, collisions, or faulty payload assembly.

Loading next visibility...
Identifier
8084, 1972-058DK
Orbit
SSO
Country
Flag of USUS
Related business
Manufacturer
Unknown
Mission
Spacecraft
Bus & Motor
Unknown
Mass
Unknown
Launch date (UTC)
1972-07-23 (54 years ago)
Launch vehicle
Unknown
Launch site
Air Force Western Test Range (AFWTR)
Object type
Payload
Rocket body
Debris
Shape & HBR
Unknown shape, 0.1 m
Radar Cross Section
Medium (>0.1 m² and <1 m²)

Expand to show TLE details & history
Last TLE update: 1 week ago

TLE from 1 week ago
0 DELTA 1 DEB
1 08084U 72058DK  26154.45079611  .00000560  00000-0  35364-3 0  9998
2 08084  98.6435 238.7895 0537798  33.3979 329.9901 13.53224723619823
Epoch: 2026-06-03T10:49Z
TLE epoch observation values (Epoch: 2026-06-03T10:49:08.783Z)
Latitude
0.00001°
Longitude
-175.40633°
Altitude
722.546 km
Speed
7.664 km/s
True Right ascension
15h 55m 09s
True Declination
0° 00' 00"
Sunlit
Object was in full shadow at epoch
Visualization orbit readout
Latitude
Unknown
Longitude
Unknown
Altitude
Unknown
Speed
Unknown
Apparent Right ascension
Unknown
Apparent Declination
Unknown
Sunlit
N/A
Visualization observer readout
Local Sidereal Time
06:35:25
Azimuth
Unknown
Elevation
Unknown
Doppler factor
Unknown
Orbital elements
Apogee altitude
1,457.546 km
Perigee altitude
657.756 km
Semi-major axis
7,435.788 km
Eccentricity
0.05378
Inclination
98.6435°
RAAN
238.7895°
Arg. of periapsis
33.3979°
True anomaly
326.7196°
Mean anomaly
329.9901°
Eccentric anomaly
328.37434°
Mean motion
3.38495 °/min
Orbital period
106.35 mins
BSTAR
0.00035364
Loading maneuver chart data...
Computing Atmospheric mass density...
Loading historical data...
Loading historical data...
Loading historical data...
Loading historical data...
Loading historical data...
Loading historical data...
Loading historical data...

Documentation

Showing up to 5 results
|